星链-11675 (STARLINK-11675)

导读 | 豆包AI

STARLINK-11675是美国于2025年6月3日发射的星链系列卫星,隶属于SpaceX公司打造的星链星座项目。该项目旨在构建全球卫星互联网星座,为全球偏远地区、海洋等网络覆盖薄弱区域提供高速互联网接入服务,STARLINK-11675的入轨进一步扩充了星链星座的卫星规模,提升了星座服务覆盖能力与网络稳定性。

基本信息
目录编号:
64235
目录名称:
STARLINK-11675
国际标识:
2025-119C
轨道中心:
EARTH
卫星名称:
星链-11675
卫星全名:
星链-11675 (STARLINK-11675)
卫星状态:
在轨 (已飞行333 天)
发射日期:
2025-06-03 UTC
国别 :
美国 (US)
星等 :
--
轨道信息
数据来源 国际轨道数据
星历时间: 2026-05-02T01:10:31+0800
17小时前
查看轨道信息
半长轴: 6734.506km
偏心率: 0.0001687
轨道倾角: 43.000°
近地点辐角 269.173°
升交点赤经 249.551°
平近点角 90.895°
近地点: 355.232km
远地点: 357.506km
周期: 91.668分钟
每日圈数: 15.708842
详细信息
固有亮度:
5
最大亮度:
2.5
卫星平台:
Starlink V1.0
覆盖范围:
全球
运营商:
太空探索技术公司
运营商所在国:
美国
制造商(研发单位):
太空探索技术公司
制造商所在国:
美国
使用方式:
暂无
卫星简介
Starlink 计划是 SpaceX 推出的全球卫星互联网项目,通过发射低轨道卫星,为全球尤其是偏远地区提供高速、低延迟的互联网服务。自 2019 年起,Starlink 已部署数千颗卫星,旨在缩小全球数字鸿沟,推动互联网普及。该项目还为军事、航空等行业提供通信支持,带来广泛经济效益。
2D轨道图
3D轨道图
轨道高度分析图
轨道倾角分析图
轨道综合分析图
查看轨道综合分析图